SIA965 WIII-WSSS

Flight info

Callsign SIA965
Flight time 1h 6m
Altitude 38000
Route DOLTA G579 REPOV REPOV2A
Aircraft B77W/H-SDE1E2E3FGHIJ4J5M1P2RWXYZ/LB1D1

Departure

Time 2026-05-05 12:14
Airport Soekarno-Hatta International Airport (WIII)

Arrival

Time 2026-05-05 13:20
Airport Singapore Changi Airport (WSSS)
Time Latitude Longitude Altitude Speed Heading
2026-05-05 11:30 -6.11841 106.66233 43 ft 0 kts 159°
2026-05-05 12:04 -6.11840 106.66233 43 ft 1 kts 159°
2026-05-05 12:04 -6.11818 106.66224 41 ft 4 kts 158°
2026-05-05 12:04 -6.11792 106.66214 39 ft 4 kts 158°
2026-05-05 12:04 -6.11771 106.66205 40 ft 4 kts 170°
2026-05-05 12:05 -6.11752 106.66205 41 ft 4 kts 208°
2026-05-05 12:05 -6.11740 106.66217 41 ft 4 kts 249°
2026-05-05 12:05 -6.11731 106.66242 39 ft 3 kts 249°
2026-05-05 12:05 -6.11730 106.66246 39 ft 0 kts 248°
2026-05-05 12:07 -6.11730 106.66245 39 ft 2 kts 248°
2026-05-05 12:07 -6.11753 106.66189 43 ft 11 kts 248°
2026-05-05 12:07 -6.11783 106.66114 43 ft 12 kts 248°
2026-05-05 12:07 -6.11800 106.66046 43 ft 10 kts 282°
2026-05-05 12:08 -6.11744 106.66001 43 ft 12 kts 338°
2026-05-05 12:08 -6.11640 106.65959 43 ft 20 kts 338°
2026-05-05 12:08 -6.11555 106.65919 42 ft 13 kts 334°
2026-05-05 12:08 -6.11504 106.65877 32 ft 10 kts 283°
2026-05-05 12:09 -6.11528 106.65808 43 ft 13 kts 248°
2026-05-05 12:09 -6.11579 106.65679 43 ft 26 kts 248°
2026-05-05 12:09 -6.11646 106.65511 43 ft 26 kts 248°
2026-05-05 12:09 -6.11714 106.65343 44 ft 26 kts 249°
2026-05-05 12:10 -6.11779 106.65175 44 ft 26 kts 249°
2026-05-05 12:10 -6.11847 106.65007 44 ft 26 kts 248°
2026-05-05 12:10 -6.11915 106.64838 42 ft 26 kts 248°
2026-05-05 12:10 -6.11982 106.64670 44 ft 26 kts 248°
2026-05-05 12:11 -6.12049 106.64502 44 ft 26 kts 248°
2026-05-05 12:11 -6.12117 106.64332 44 ft 26 kts 248°
2026-05-05 12:11 -6.12183 106.64166 44 ft 26 kts 248°
2026-05-05 12:11 -6.12247 106.64005 44 ft 10 kts 248°
2026-05-05 12:12 -6.12246 106.63936 45 ft 10 kts 290°
2026-05-05 12:12 -6.12194 106.63891 46 ft 10 kts 351°
2026-05-05 12:12 -6.12129 106.63908 46 ft 7 kts 357°
2026-05-05 12:12 -6.12086 106.63927 45 ft 8 kts 54°
2026-05-05 12:13 -6.12077 106.63944 45 ft 0 kts 65°
2026-05-05 12:13 -6.12074 106.63952 45 ft 2 kts 68°
2026-05-05 12:13 -6.12051 106.64010 45 ft 24 kts 68°
2026-05-05 12:13 -6.11897 106.64392 45 ft 101 kts 69°
2026-05-05 12:14 -6.11542 106.65285 45 ft 171 kts 71°
2026-05-05 12:14 -6.11097 106.66424 834 ft 161 kts 68°
2026-05-05 12:14 -6.10574 106.67468 1529 ft 181 kts 48°
2026-05-05 12:14 -6.09584 106.68213 2251 ft 184 kts 33°
2026-05-05 12:15 -6.08278 106.68642 2478 ft 217 kts
2026-05-05 12:15 -6.06715 106.68214 2725 ft 255 kts 330°
2026-05-05 12:15 -6.05236 106.67120 3329 ft 269 kts 323°
2026-05-05 12:15 -6.03743 106.65913 4036 ft 285 kts 322°
2026-05-05 12:16 -6.02117 106.64584 4399 ft 317 kts 322°
2026-05-05 12:16 -6.00929 106.63610 4566 ft 338 kts 322°
2026-05-05 12:16 -5.99041 106.62065 5114 ft 356 kts 322°
2026-05-05 12:16 -5.96458 106.59957 6291 ft 366 kts 322°
2026-05-05 12:17 -5.95147 106.58892 6891 ft 368 kts 322°
2026-05-05 12:17 -5.92460 106.56714 8116 ft 373 kts 322°
2026-05-05 12:17 -5.91121 106.55632 8712 ft 376 kts 322°
2026-05-05 12:17 -5.89071 106.53970 9580 ft 381 kts 322°
2026-05-05 12:18 -5.86993 106.52286 10371 ft 386 kts 322°
2026-05-05 12:18 -5.84888 106.50584 11184 ft 391 kts 322°
2026-05-05 12:18 -5.82751 106.48859 12108 ft 396 kts 322°
2026-05-05 12:18 -5.80597 106.47124 13115 ft 399 kts 322°
2026-05-05 12:19 -5.78417 106.45369 14022 ft 404 kts 322°
2026-05-05 12:19 -5.76208 106.43593 14811 ft 410 kts 322°
2026-05-05 12:19 -5.73965 106.41790 15619 ft 415 kts 322°
2026-05-05 12:19 -5.71697 106.39966 16409 ft 420 kts 322°
2026-05-05 12:20 -5.69403 106.38122 17189 ft 425 kts 322°
2026-05-05 12:20 -5.67076 106.36251 17937 ft 431 kts 322°
2026-05-05 12:20 -5.64723 106.34359 18607 ft 436 kts 322°
2026-05-05 12:20 -5.62344 106.32447 19233 ft 441 kts 322°
2026-05-05 12:21 -5.59938 106.30513 19890 ft 445 kts 322°
2026-05-05 12:21 -5.57513 106.28564 20532 ft 449 kts 322°
2026-05-05 12:21 -5.55058 106.26591 21147 ft 454 kts 322°
2026-05-05 12:21 -5.52588 106.24607 21761 ft 458 kts 322°
2026-05-05 12:22 -5.50081 106.22592 22361 ft 463 kts 322°
2026-05-05 12:22 -5.47562 106.20569 22939 ft 467 kts 322°
2026-05-05 12:22 -5.45015 106.18522 23502 ft 471 kts 322°
2026-05-05 12:22 -5.42444 106.16458 23976 ft 475 kts 322°
2026-05-05 12:23 -5.39858 106.14381 24481 ft 477 kts 322°
2026-05-05 12:23 -5.37263 106.12297 24988 ft 480 kts 322°
2026-05-05 12:23 -5.34649 106.10198 25474 ft 482 kts 322°
2026-05-05 12:23 -5.32024 106.08091 25935 ft 486 kts 322°
2026-05-05 12:24 -5.29373 106.05962 26384 ft 489 kts 322°
2026-05-05 12:24 -5.26713 106.03827 26838 ft 492 kts 322°
2026-05-05 12:24 -5.24032 106.01676 27290 ft 495 kts 322°
2026-05-05 12:24 -5.21336 105.99512 27711 ft 498 kts 322°
2026-05-05 12:25 -5.18624 105.97334 28102 ft 501 kts 322°
2026-05-05 12:25 -5.15896 105.95146 28514 ft 504 kts 322°
2026-05-05 12:25 -5.13131 105.92973 28894 ft 506 kts 324°
2026-05-05 12:25 -5.10202 105.91012 29244 ft 508 kts 330°
2026-05-05 12:26 -5.07171 105.89275 29586 ft 510 kts 332°
2026-05-05 12:26 -5.04062 105.87537 29939 ft 512 kts 332°
2026-05-05 12:26 -5.00951 105.85806 30319 ft 511 kts 332°
2026-05-05 12:26 -4.97861 105.84077 30787 ft 508 kts 332°
2026-05-05 12:27 -4.94781 105.82342 31294 ft 506 kts 332°
2026-05-05 12:27 -4.91728 105.80611 31774 ft 504 kts 332°
2026-05-05 12:27 -4.88686 105.78880 32246 ft 502 kts 332°
2026-05-05 12:27 -4.85657 105.77153 32702 ft 500 kts 332°
2026-05-05 12:28 -4.82634 105.75428 33176 ft 499 kts 332°
2026-05-05 12:28 -4.79616 105.73706 33653 ft 497 kts 332°
2026-05-05 12:28 -4.76617 105.71996 34088 ft 495 kts 332°
2026-05-05 12:28 -4.73625 105.70292 34457 ft 495 kts 332°
2026-05-05 12:29 -4.70633 105.68588 34791 ft 495 kts 331°
2026-05-05 12:29 -4.67643 105.66885 35145 ft 494 kts 331°
2026-05-05 12:29 -4.64653 105.65182 35516 ft 494 kts 331°
2026-05-05 12:29 -4.61667 105.63483 35882 ft 493 kts 331°
2026-05-05 12:30 -4.58687 105.61786 36234 ft 492 kts 331°
2026-05-05 12:30 -4.55714 105.60094 36579 ft 492 kts 331°
2026-05-05 12:30 -4.52742 105.58402 36937 ft 491 kts 331°
2026-05-05 12:30 -4.49782 105.56717 37289 ft 490 kts 331°
2026-05-05 12:31 -4.46814 105.55028 37622 ft 489 kts 331°
2026-05-05 12:31 -4.43855 105.53344 37817 ft 492 kts 331°
2026-05-05 12:31 -4.37877 105.49943 37863 ft 493 kts 331°
2026-05-05 12:32 -4.31956 105.46575 37861 ft 486 kts 331°
2026-05-05 12:32 -4.26136 105.43264 37872 ft 484 kts 331°
2026-05-05 12:33 -4.20293 105.39942 37869 ft 483 kts 331°
2026-05-05 12:33 -4.14447 105.36618 37869 ft 483 kts 331°
2026-05-05 12:34 -4.08598 105.33292 37865 ft 484 kts 331°
2026-05-05 12:34 -4.02739 105.29962 37865 ft 485 kts 331°
2026-05-05 12:35 -3.96865 105.26623 37870 ft 486 kts 331°
2026-05-05 12:35 -3.90979 105.23279 37870 ft 487 kts 331°
2026-05-05 12:36 -3.85076 105.19952 37866 ft 488 kts 331°
2026-05-05 12:36 -3.79146 105.16620 37867 ft 489 kts 331°
2026-05-05 12:37 -3.73218 105.13286 37871 ft 489 kts 331°
2026-05-05 12:37 -3.67276 105.09942 37870 ft 490 kts 331°
2026-05-05 12:38 -3.61335 105.06597 37868 ft 490 kts 331°
2026-05-05 12:38 -3.55385 105.03248 37870 ft 490 kts 331°
2026-05-05 12:39 -3.49444 104.99906 37869 ft 490 kts 331°
2026-05-05 12:39 -3.43547 104.96588 37866 ft 489 kts 331°
2026-05-05 12:40 -3.37619 104.93253 37870 ft 488 kts 331°
2026-05-05 12:40 -3.31707 104.89928 37868 ft 487 kts 331°
2026-05-05 12:41 -3.25768 104.86588 37867 ft 486 kts 331°
2026-05-05 12:41 -3.19886 104.83281 37866 ft 485 kts 331°
2026-05-05 12:42 -3.14037 104.79992 37863 ft 485 kts 331°
2026-05-05 12:42 -3.08159 104.76688 37863 ft 485 kts 331°
2026-05-05 12:43 -3.02264 104.73374 37862 ft 486 kts 331°
2026-05-05 12:43 -2.96373 104.70063 37856 ft 487 kts 331°
2026-05-05 12:44 -2.90428 104.66821 37855 ft 487 kts 336°
2026-05-05 12:44 -2.84074 104.64543 37868 ft 486 kts 347°
2026-05-05 12:45 -2.77439 104.63221 37869 ft 486 kts 351°
2026-05-05 12:45 -2.70773 104.62026 37864 ft 487 kts 351°
2026-05-05 12:46 -2.64092 104.60804 37871 ft 488 kts 350°
2026-05-05 12:46 -2.57409 104.59551 37871 ft 489 kts 350°
2026-05-05 12:47 -2.50715 104.58285 37872 ft 489 kts 350°
2026-05-05 12:47 -2.44021 104.57019 37873 ft 490 kts 350°
2026-05-05 12:48 -2.37318 104.55753 37873 ft 490 kts 350°
2026-05-05 12:48 -2.30608 104.54487 37873 ft 491 kts 350°
2026-05-05 12:49 -2.23905 104.53222 37873 ft 490 kts 350°
2026-05-05 12:49 -2.17199 104.51957 37870 ft 490 kts 350°
2026-05-05 12:50 -2.10501 104.50693 37875 ft 490 kts 349°
2026-05-05 12:50 -2.03810 104.49431 37874 ft 489 kts 349°
2026-05-05 12:51 -1.97122 104.48170 37875 ft 489 kts 349°
2026-05-05 12:51 -1.90442 104.46910 37873 ft 489 kts 349°
2026-05-05 12:52 -1.83758 104.45649 37875 ft 488 kts 349°
2026-05-05 12:52 -1.77084 104.44391 37876 ft 488 kts 349°
2026-05-05 12:53 -1.70407 104.43132 37874 ft 488 kts 349°
2026-05-05 12:53 -1.63738 104.41874 37873 ft 488 kts 349°
2026-05-05 12:54 -1.53721 104.39986 37877 ft 488 kts 349°
2026-05-05 12:55 -1.47048 104.38728 37876 ft 488 kts 349°
2026-05-05 12:55 -1.40414 104.37477 37878 ft 488 kts 349°
2026-05-05 12:56 -1.33721 104.36215 37876 ft 489 kts 349°
2026-05-05 12:56 -1.27033 104.34955 37880 ft 489 kts 349°
2026-05-05 12:57 -1.20347 104.33695 37878 ft 489 kts 349°
2026-05-05 12:57 -1.13660 104.32434 37879 ft 489 kts 349°
2026-05-05 12:58 -1.06967 104.31173 37878 ft 489 kts 349°
2026-05-05 12:58 -1.00272 104.29911 37878 ft 490 kts 349°
2026-05-05 12:59 -0.93572 104.28649 37883 ft 490 kts 349°
2026-05-05 12:59 -0.86864 104.27385 37883 ft 490 kts 349°
2026-05-05 13:00 -0.76802 104.25489 37882 ft 491 kts 349°
2026-05-05 13:01 -0.66805 104.23605 36601 ft 502 kts 350°
2026-05-05 13:01 -0.63380 104.22959 35833 ft 501 kts 350°
2026-05-05 13:01 -0.59949 104.22313 34968 ft 503 kts 350°
2026-05-05 13:01 -0.56501 104.21663 34055 ft 506 kts 350°
2026-05-05 13:02 -0.53039 104.20995 33000 ft 509 kts 350°
2026-05-05 13:02 -0.49550 104.20304 31976 ft 511 kts 349°
2026-05-05 13:02 -0.46056 104.19603 30938 ft 514 kts 349°
2026-05-05 13:02 -0.43733 104.19137 30317 ft 515 kts 349°
2026-05-05 13:03 -0.40240 104.18435 29555 ft 510 kts 349°
2026-05-05 13:03 -0.35617 104.17510 28518 ft 502 kts 349°
2026-05-05 13:03 -0.33354 104.17059 28049 ft 499 kts 350°
2026-05-05 13:03 -0.29975 104.16386 27363 ft 493 kts 350°
2026-05-05 13:04 -0.26625 104.15720 26688 ft 488 kts 350°
2026-05-05 13:04 -0.22245 104.14849 25820 ft 482 kts 350°
2026-05-05 13:04 -0.20030 104.14409 25387 ft 479 kts 350°
2026-05-05 13:04 -0.16774 104.13762 24762 ft 474 kts 350°
2026-05-05 13:05 -0.13556 104.13123 24158 ft 470 kts 350°
2026-05-05 13:05 -0.10363 104.12488 23574 ft 465 kts 350°
2026-05-05 13:05 -0.07202 104.11859 22892 ft 461 kts 350°
2026-05-05 13:05 -0.04069 104.11237 22242 ft 457 kts 350°
2026-05-05 13:06 -0.00968 104.10620 21620 ft 452 kts 350°
2026-05-05 13:06 0.02102 104.10010 20996 ft 448 kts 350°
2026-05-05 13:06 0.05110 104.09412 20401 ft 444 kts 350°
2026-05-05 13:06 0.08167 104.08804 19796 ft 440 kts 350°
2026-05-05 13:07 0.11161 104.08209 19207 ft 437 kts 350°
2026-05-05 13:07 0.14125 104.07620 18649 ft 433 kts 350°
2026-05-05 13:07 0.17031 104.07042 18090 ft 430 kts 350°
2026-05-05 13:07 0.19952 104.06461 17463 ft 426 kts 350°
2026-05-05 13:08 0.22849 104.05885 16869 ft 422 kts 350°
2026-05-05 13:08 0.25716 104.05315 16298 ft 418 kts 350°
2026-05-05 13:08 0.28541 104.04754 15743 ft 414 kts 350°
2026-05-05 13:08 0.31365 104.04194 15176 ft 410 kts 350°
2026-05-05 13:09 0.34157 104.03641 14628 ft 407 kts 350°
2026-05-05 13:09 0.36925 104.03092 14090 ft 404 kts 349°
2026-05-05 13:09 0.39671 104.02548 13547 ft 401 kts 349°
2026-05-05 13:09 0.42393 104.02009 12963 ft 397 kts 349°
2026-05-05 13:10 0.45095 104.01474 12392 ft 394 kts 349°
2026-05-05 13:10 0.47769 104.00944 11843 ft 391 kts 349°
2026-05-05 13:10 0.50428 104.00416 11295 ft 388 kts 349°
2026-05-05 13:10 0.53068 103.99893 10764 ft 385 kts 349°
2026-05-05 13:11 0.55685 103.99374 10233 ft 382 kts 349°
2026-05-05 13:11 0.58287 103.98858 9713 ft 380 kts 349°
2026-05-05 13:11 0.60872 103.98346 9148 ft 377 kts 348°
2026-05-05 13:11 0.63426 103.97839 8653 ft 373 kts 349°
2026-05-05 13:12 0.65958 103.97336 8155 ft 369 kts 348°
2026-05-05 13:12 0.68474 103.96837 7646 ft 366 kts 348°
2026-05-05 13:12 0.70956 103.96345 7240 ft 362 kts 348°
2026-05-05 13:12 0.73461 103.95846 7083 ft 371 kts 348°
2026-05-05 13:13 0.75974 103.95317 7019 ft 365 kts 348°
2026-05-05 13:13 0.78440 103.94783 6861 ft 360 kts 347°
2026-05-05 13:13 0.80876 103.94254 6489 ft 356 kts 347°
2026-05-05 13:13 0.83287 103.93733 5954 ft 354 kts 347°
2026-05-05 13:14 0.85689 103.93216 5398 ft 353 kts 347°
2026-05-05 13:14 0.88068 103.92705 4882 ft 351 kts 347°
2026-05-05 13:14 0.90444 103.92196 4403 ft 348 kts 347°
2026-05-05 13:14 0.92813 103.91797 4097 ft 345 kts 355°
2026-05-05 13:15 0.95224 103.91704 4017 ft 349 kts 359°
2026-05-05 13:15 0.97649 103.91695 4008 ft 348 kts 360°
2026-05-05 13:15 1.00066 103.91699 4006 ft 347 kts
2026-05-05 13:15 1.02484 103.91706 4003 ft 347 kts
2026-05-05 13:16 1.04893 103.91716 4004 ft 347 kts
2026-05-05 13:16 1.07305 103.91728 4006 ft 347 kts
2026-05-05 13:16 1.09726 103.91738 3954 ft 348 kts
2026-05-05 13:16 1.12151 103.91747 3719 ft 349 kts
2026-05-05 13:17 1.14572 103.91756 3473 ft 346 kts
2026-05-05 13:17 1.16976 103.91763 3248 ft 344 kts
2026-05-05 13:17 1.19357 103.91771 3007 ft 340 kts
2026-05-05 13:17 1.21683 103.92101 2747 ft 342 kts 17°
2026-05-05 13:18 1.23871 103.92997 2301 ft 331 kts 26°
2026-05-05 13:18 1.25860 103.93924 1894 ft 301 kts 24°
2026-05-05 13:18 1.27717 103.94699 1497 ft 277 kts 23°
2026-05-05 13:18 1.29428 103.95422 1154 ft 255 kts 24°
2026-05-05 13:19 1.30964 103.96075 852 ft 225 kts 23°
2026-05-05 13:19 1.32312 103.96646 641 ft 195 kts 23°
2026-05-05 13:19 1.33485 103.97144 388 ft 172 kts 22°
2026-05-05 13:19 1.34516 103.97585 159 ft 153 kts 22°
2026-05-05 13:20 1.35492 103.97996 51 ft 151 kts 22°
2026-05-05 13:20 1.36285 103.98329 37 ft 60 kts 23°
2026-05-05 13:20 1.36568 103.98454 38 ft 25 kts 30°
2026-05-05 13:20 1.36697 103.98571 37 ft 22 kts 50°
2026-05-05 13:21 1.36730 103.98637 37 ft 10 kts 85°
2026-05-05 13:21 1.36684 103.98686 37 ft 11 kts 179°
2026-05-05 13:21 1.36606 103.98661 38 ft 12 kts 203°
2026-05-05 13:21 1.36525 103.98627 38 ft 13 kts 202°
2026-05-05 13:22 1.36437 103.98590 38 ft 14 kts 203°
2026-05-05 13:22 1.36329 103.98544 38 ft 23 kts 202°
2026-05-05 13:22 1.36164 103.98476 38 ft 26 kts 203°
2026-05-05 13:22 1.36015 103.98413 38 ft 22 kts 202°
2026-05-05 13:23 1.35878 103.98355 38 ft 22 kts 202°
2026-05-05 13:23 1.35783 103.98316 38 ft 8 kts 203°
2026-05-05 13:23 1.35727 103.98313 38 ft 9 kts 150°
2026-05-05 13:23 1.35679 103.98355 38 ft 10 kts 156°
2026-05-05 13:24 1.35611 103.98343 38 ft 10 kts 199°
2026-05-05 13:24 1.35543 103.98313 38 ft 11 kts 205°
2026-05-05 13:24 1.35470 103.98283 38 ft 11 kts 199°
2026-05-05 13:24 1.35392 103.98293 38 ft 11 kts 162°
2026-05-05 13:25 1.35324 103.98319 38 ft 11 kts 144°
2026-05-05 13:25 1.35288 103.98378 38 ft 8 kts 114°
2026-05-05 13:25 1.35280 103.98396 38 ft 2 kts 113°
2026-05-05 13:25 1.35278 103.98399 38 ft 0 kts 113°